SCP
0 0 0 0 0 0 0 0 0 0 0 0 0 0 0 0 0 0 0 0 0 0 0 0 0 0 0 0 0 0 0 0 0 0 0 0 0 0 0 0 0 0 0
0 0 0 0 0 0 0 0 0 0 0 0 0 0 0 0 0 0 0 0 0 0 0 0 0 0 0 0 0 0 0 0 0 0 0 0 0 0 0 0 0 0 0
0 0 0 0 0 0 0 0 0 0 0 0 0 0 0 0 0 0 0 0 0 0 0 0 0 0 0 0 0 0 0 0 0 0 0 0 0 0 0 0 0 0 0
0 0 0 0 0 0 0 0 0 0 0 0 0 0 0 0 0 0 0 0 0 0 0 0 0 0 0 0 0 0 0 0 0 0 0 0 0 0 0 0 0 0 0
0 0 0 0 0 0 0 0 0 0 0 0 0 0 0 0 0 0 0 0 0 0 0 0 0 0 0 0 0 0 0 0 0 0 0 0 0 0 0 0 0 0 0
0 0 0 0 0 0 0 0 0 0 0 0 0 0 0 0 0 0 0 0 0 0 0 0 0 0 0 0 0 0 0 0 0 0 0 0 0 0 0 0 0 0 0
0 0 0 0 0 0 0 0 0 0 0 0 0 0 0 0 0 0 0 0 0 0 0 0 0 0 0 0 0 0 0 0 0 0 0 0 0 0 0 0 0 0 0
0 0 0 0 0 0 0 0 0 0 0 0 0 0 0 0 0 0 0 0 0 0 0 0 0 0 0 0 0 0 0 0 0 0 0 0 0 0 0 0 0 0 0
0 0 0 0 0 0 0 0 0 0 0 0 0 0 0 0 0 0 0 0 0 0 0 0 0 0 0 0 0 0 0 0 0 0 0 0 0 0 0 0 0 0 0
0 0 0 0 0 0 0 0 0 0 0 0 0 0 0 0 0 0 0 0 0 0 0 0 0 0 0 0 0 0 0 0 0 0 0 0 0 0 0 0 0 0 0
0 0 0 0 0 0 0 0 0 0 0 0 0 0 0 0 0 0 0 0 0 0 0 0 0 0 0 0 0 0 0 0 0 0 0 0 0 0 0 0 0 0 0
0 0 0 0 0 0 0 0 0 0 0 0 0 0 0 0 0 0 0 0 0 0 0 0 0 0 0 0 0 0 0 0 0 0 0 0 0 0 0 0 0 0 0
0 0 0 0 0 0 0 0 0 0 0 0 0 0 0 0 0 0 0 0 0 0 0 0 0 0 0 0 0 0 0 0 0 0 0 0 0 0 0 0 0 0 0
0 0 0 0 0 0 0 0 0 0 0 0 0 0 0 0 0 0 0 0 0 0 0 0 0 0 0 0 0 0 0 0 0 0 0 0 0 0 0 0 0 0 0
0 0 0 0 0 0 0 0 0 0 0 0 0 0 0 0 0 0 0 0 0 0 0 0 0 0 0 0 0 0 0 0 0 0 0 0 0 0 0 0 0 0 0
0 0 0 0 0 0 0 0 0 0 0 0 0 0 0 0 0 0 0 0 0 0 0 0 0 0 0 0 0 0 0 0 0 0 0 0 0 0 0 0 0 0 0
0 0 0 0 0 0 0 0 0 0 0 0 0 0 0 0 0 0 0 0 0 0 0 0 0 0 0 0 0 0 0 0 0 0 0 0 0 0 0 0 0 0 0
0 0 0 0 0 0 0 0 0 0 0 0 0 0 0 0 0 0 0 0 0 0 0 0 0 0 0 0 0 0 0 0 0 0 0 0 0 0 0 0 0 0 0
0 0 0 0 0 0 0 0 0 0 0 0 0 0 0 0 0 0 0 0 0 0 0 0 0 0 0 0 0 0 0 0 0 0 0 0 0 0 0 0 0 0 0
0 0 0 0 0 0 0 0 0 0 0 0 0 0 0 0 0 0 0 0 0 0 0 0 0 0 0 0 0 0 0 -0 -0 0 0 0 0 0 0 0 0 0 0
0 0 0 0 0 0 0 0 0 0 0 0 0 0 0 0 0 0 0 0 0 0 0 0 0 0 0 0 0 -0 -0 -0 -0 -0 0 0 0 -0 -0 0 0 0 -0
0 0 0 0 0 0 0 0 0 0 0 0 0 0 0 0 0 0 0 0 0 0 0 0 -0 -0 -0 -0 -0 -0 -0 -0 -0 -0 0 0 0 0 0 0 0 0 0
0 0 0 0 0 0 0 -0 0 0 0 0 0 0 0 0 0 0 0 0 0 0 -0 -0 -0 -0 -0 -0 -0 -0 -0 -0 -0 -0 0 0 0 0 0 0 0 0 0
0 0 0 0 0 0 0 0 0 0 0 0 0 0 0 0 0 0 0 0 0 0 -0 -0 -0 -0 -0 -0 -0 -0 -0 -0 0 0 0 0 0 0 0 0 0 0 0
0 0 0 0 0 0 0 0 0 0 0 0 0 -0 -0 -0 -0 0 0 0 0 0 0 0 0 0 -0 -0 -0 -0 0 0 0 0 0 0 0 0 0 0 0 0 0
0 0 0 0 0 0 0 0 0 0 0 0 0 -0 -0 -0 -0 -0 0 0 0 0 0 0 0 0 0 0 0 0 0 0 0 0 0 0 0 0 0 0 0 0 0
Wind_Speed
1 1 1 1 1 1 2 2 2 3 3 3 3 4 4 4 4 4 3 7 8 9 10 11 12 13 14 14 13 13 12 12 11 10 9 8 8 8 7 7 7 7 6
0 1 1 1 1 1 1 2 2 2 2 2 3 4 4 4 4 4 3 4 7 8 9 10 11 12 13 13 13 12 12 12 12 11 10 9 8 8 7 7 7 7 7
0 0 1 1 1 1 1 1 1 1 2 2 3 3 3 3 3 3 3 3 3 6 8 8 8 10 11 13 13 13 12 12 12 11 11 10 9 9 8 8 7 7 7
1 0 1 1 2 1 0 0 1 1 1 1 2 2 2 2 3 3 3 2 2 2 4 6 7 9 10 12 12 13 12 12 12 12 12 11 10 10 9 8 8 8 8
2 1 1 1 1 1 1 1 0 1 1 1 2 1 1 2 2 2 2 3 2 2 2 3 6 7 9 11 11 11 12 12 12 12 12 12 11 10 9 9 9 9 9
3 2 1 2 2 1 1 1 0 1 1 1 1 1 1 1 1 1 2 2 1 2 1 2 2 3 5 6 8 10 11 11 11 11 12 11 11 10 10 10 9 9 9
3 3 2 2 2 1 1 1 0 0 1 0 0 1 1 1 1 1 2 1 1 1 1 1 1 1 1 4 5 7 9 10 10 10 10 10 10 11 11 11 10 9 9
5 3 3 2 2 1 2 1 0 0 0 0 0 0 1 1 1 2 2 1 2 2 2 2 1 1 1 0 2 5 6 7 8 9 9 9 10 11 11 11 11 10 9
5 5 4 3 3 2 2 2 1 0 1 1 1 1 1 2 1 1 2 2 2 2 2 2 3 3 2 1 0 2 4 5 7 8 9 10 11 11 11 12 11 11 10
6 5 5 4 4 3 3 2 2 1 1 1 1 1 1 1 1 1 1 2 3 3 3 3 3 4 3 2 2 3 4 5 6 8 10 11 12 12 12 12 12 11 11
6 6 5 5 4 3 3 3 2 1 1 1 1 1 1 1 1 2 1 1 2 3 3 3 3 3 4 4 4 8 10 9 8 8 10 11 12 11 11 11 11 11 10
4 6 5 5 4 4 4 3 3 2 1 1 1 1 1 1 1 1 2 1 1 2 3 4 4 4 4 4 7 13 14 14 12 10 10 11 11 12 11 11 11 11 11
4 5 5 5 4 4 4 3 3 3 2 2 1 1 1 1 1 1 2 2 2 2 3 4 4 4 4 5 6 12 14 14 13 11 11 11 10 10 11 11 11 11 11
3 4 5 5 5 5 4 4 3 3 3 2 2 1 1 1 0 1 2 3 3 2 3 3 3 4 4 4 8 10 9 13 12 11 11 10 10 10 10 10 10 10 10
3 5 5 5 5 5 5 4 3 3 3 3 3 2 1 1 1 1 1 2 4 4 2 2 2 3 4 5 7 6 6 11 11 10 10 10 9 9 9 9 9 9 9
4 5 5 5 5 5 5 4 4 4 4 4 3 3 3 3 3 2 2 2 2 3 4 2 2 3 4 5 8 6 6 9 9 8 8 8 8 8 8 8 8 8 7
5 5 5 5 6 6 6 5 6 5 6 5 5 5 5 4 3 3 3 3 3 4 7 4 3 3 4 5 5 4 4 4 4 7 6 6 6 6 7 6 6 6 6
5 5 5 6 7 7 6 6 6 7 7 7 6 6 5 4 5 4 4 5 5 5 7 8 4 3 4 4 4 4 3 3 3 4 4 5 5 5 5 5 5 4 3
6 6 6 7 7 6 6 6 6 7 7 7 6 6 5 5 6 5 5 6 5 6 6 7 5 3 3 3 3 4 4 3 3 3 3 3 4 4 3 3 3 4 4
6 6 6 7 6 6 6 6 7 7 7 7 7 7 7 6 5 5 6 7 7 8 7 7 6 4 3 3 2 3 3 3 3 3 3 2 2 2 2 3 4 4 5
6 6 7 7 7 6 6 6 7 8 8 8 8 8 8 10 10 7 6 6 7 7 6 6 5 4 3 2 2 1 2 2 2 2 2 1 1 0 1 2 4 5 5
6 7 7 7 8 6 9 10 8 7 8 8 8 8 8 10 12 13 13 10 7 7 6 5 4 4 3 2 2 2 2 2 1 2 1 1 1 1 1 2 3 5 6
6 7 7 7 7 8 10 11 11 8 8 8 8 7 7 8 9 9 11 13 12 10 7 5 5 3 3 2 2 2 2 1 1 1 1 1 1 2 2 2 3 5 6
5 5 6 6 6 7 9 9 10 8 8 8 8 7 7 7 7 7 8 9 9 8 6 4 4 3 2 2 2 2 2 2 1 1 1 1 1 2 2 3 3 4 5
5 4 4 6 6 7 9 8 7 6 6 7 7 7 7 7 8 9 9 8 8 6 7 8 7 6 5 4 3 3 2 2 2 1 1 1 1 2 2 2 3 4 5
4 4 6 6 6 6 9 8 6 4 5 5 5 7 9 8 8 8 6 6 6 4 4 5 6 6 5 4 4 2 2 1 1 1 0 1 1 2 2 2 2 3 3
Wind_Direction
233 258 259 254 250 233 226 236 236 236 236 230 227 224 228 233 235 233 240 234 225 218 216 216 215 212 210 205 199 197 195 192 192 192 187 182 180 178 176 176 172 171 168
227 254 258 258 262 255 241 236 239 232 235 235 240 234 236 237 237 232 235 239 229 221 218 217 215 215 212 206 200 197 197 195 194 192 189 186 183 181 178 175 172 169 161
295 291 295 300 296 296 294 278 257 247 248 248 249 244 244 242 237 235 235 235 243 234 222 215 213 214 211 207 203 200 200 199 197 195 192 191 186 182 178 175 171 163 156
44 25 348 319 319 333 341 271 263 260 252 254 268 280 275 260 247 238 234 236 240 242 230 219 216 217 216 211 206 205 204 204 202 198 196 193 188 182 179 176 169 161 155
26 22 359 325 330 347 318 275 284 252 250 259 267 282 289 282 272 260 246 242 241 238 226 223 221 220 220 217 213 210 209 207 204 201 198 193 188 181 176 168 160 153 149
18 12 7 350 358 353 325 327 320 313 272 284 293 316 321 309 309 299 278 265 256 252 239 237 239 229 220 215 211 213 213 209 205 201 199 194 183 173 163 154 150 148 143
27 35 15 8 16 356 321 332 287 276 301 313 316 318 336 15 16 344 314 309 328 332 346 299 259 240 232 217 212 210 212 208 203 196 191 181 171 160 153 150 148 144 140
20 33 31 14 16 11 5 355 337 290 280 255 192 260 302 334 2 1 359 3 5 33 28 13 16 25 353 258 178 192 196 190 179 173 169 164 162 157 154 149 145 141 140
20 24 23 20 18 12 358 350 346 252 254 255 234 208 218 239 330 8 24 25 23 36 32 24 35 37 27 10 152 157 172 167 155 152 146 142 139 138 140 139 135 133 132
23 23 21 23 23 18 6 351 349 308 237 252 276 260 250 204 191 256 33 36 41 39 32 32 39 44 42 42 54 99 115 129 144 149 142 134 131 132 134 133 131 129 129
20 24 23 22 19 14 12 8 1 1 308 249 247 263 262 265 212 201 190 72 52 37 35 36 42 46 49 54 64 78 87 92 101 117 128 126 127 128 131 132 132 133 134
14 17 21 21 15 10 12 6 360 1 340 306 280 245 232 232 212 186 171 142 95 46 36 38 44 44 48 52 72 85 86 85 86 92 101 108 115 119 119 120 124 123 123
10 5 12 11 9 7 8 6 11 5 354 346 321 290 273 261 214 173 152 137 106 68 45 39 34 43 49 51 65 79 82 84 83 85 90 95 102 107 111 113 114 116 117
1 358 9 11 9 11 12 13 20 10 7 2 358 342 323 349 64 151 158 150 133 97 66 53 35 40 52 60 67 67 76 81 82 83 85 88 93 97 102 108 112 113 115
10 14 17 16 14 16 17 19 22 13 18 18 11 10 26 32 47 66 122 152 149 143 121 73 62 40 56 66 66 67 73 80 85 89 92 94 96 99 102 106 109 110 113
20 20 20 19 19 20 20 26 23 16 31 25 26 41 46 46 56 55 75 86 110 128 118 89 81 73 72 78 73 65 68 77 84 89 95 103 109 112 113 114 116 117 119
23 25 22 26 26 24 24 34 34 31 37 37 38 48 47 48 59 52 60 77 89 107 115 101 77 80 72 75 69 64 61 60 76 85 94 106 120 123 124 126 126 124 124
28 28 30 35 33 32 32 40 42 39 41 42 42 49 46 49 57 57 69 79 87 95 116 115 98 80 78 76 74 74 69 73 73 81 99 116 125 128 132 133 134 137 143
34 33 36 37 33 33 36 39 47 47 45 44 44 50 47 56 63 66 75 82 89 96 98 110 102 86 83 80 76 71 66 55 63 79 98 120 131 142 153 160 170 182 192
40 36 37 38 35 37 38 41 48 47 45 45 45 47 50 58 69 76 83 86 94 97 98 102 102 94 87 77 77 71 62 45 47 48 59 81 107 153 186 203 211 214 216
42 39 41 37 35 37 34 41 49 51 48 47 44 43 50 60 63 70 88 96 101 100 101 103 104 102 94 92 84 69 82 63 53 36 31 39 39 30 243 230 232 231 230
37 40 39 38 39 36 40 50 59 56 50 49 45 41 48 54 62 67 74 79 91 107 111 108 109 110 108 105 101 101 97 78 54 21 15 15 7 308 284 261 252 247 243
40 41 35 38 40 34 45 54 57 62 54 47 45 44 50 48 57 70 72 68 66 69 87 115 116 118 125 137 129 107 92 75 58 355 348 5 347 306 294 282 274 262 253
43 40 35 33 41 33 42 57 60 59 55 46 42 44 54 47 49 68 76 70 63 56 61 76 103 112 122 131 128 119 114 96 54 31 350 344 327 303 304 300 293 283 271
51 43 37 36 41 28 33 51 62 59 55 43 36 38 47 55 51 67 75 72 63 51 56 67 74 75 82 97 121 109 91 79 44 8 3 302 321 312 301 295 296 298 290
63 58 50 38 38 32 31 46 55 63 58 43 34 31 39 51 54 64 75 78 70 46 44 48 49 47 55 65 76 100 122 103 69 330 288 264 321 326 314 297 296 302 297